Theta_e
297 296 295 295 294 294 294 294 293 293 293 293 295 295 295 297 297 298 300 299 297 297
297 295 295 295 294 293 293 293 290 290 290 291 292 292 292 293 294 294 297 294 293 293
297 296 295 294 292 291 290 290 290 289 289 290 291 290 290 290 292 292 292 292 291 290
296 295 294 292 291 289 289 289 289 289 289 289 289 290 288 289 290 290 289 289 288 288
297 295 292 291 290 290 289 289 289 289 289 289 290 290 288 288 288 288 288 288 287 287
296 294 291 290 289 289 288 287 287 287 288 289 289 288 288 287 287 287 288 288 287 286
296 294 291 290 289 289 288 287 286 286 287 289 289 289 288 288 287 286 286 288 287 287
297 294 292 290 289 288 287 287 286 286 286 287 288 289 287 287 286 286 285 286 287 287
296 294 292 290 288 287 286 287 287 287 286 288 290 293 292 288 285 286 285 284 284 285
295 294 292 290 289 288 287 287 286 286 286 287 288 293 292 290 286 285 284 284 283 284
294 294 292 289 288 286 286 287 286 286 286 287 288 293 292 290 286 284 284 284 283 282
294 292 290 288 287 287 285 285 286 286 286 286 286 293 292 290 285 284 284 284 284 283
293 292 290 289 287 287 286 285 286 286 286 288 285 291 293 291 285 283 283 283 284 287
293 291 290 287 285 284 283 284 284 284 285 285 287 286 292 292 286 284 283 283 282 282
Wind_Speed
5 3 3 4 3 2 2 1 1 3 3 5 4 4 4 3 2 3 3 5 4 3
6 6 5 4 3 3 2 1 2 2 2 3 4 4 5 3 3 3 3 3 3 1
6 6 5 4 4 4 2 1 1 0 2 2 2 3 3 3 3 4 3 3 4 4
7 7 6 5 5 5 3 4 3 2 2 1 0 1 2 2 2 3 3 4 5 5
7 7 7 6 6 6 6 5 5 4 3 2 1 1 3 2 1 4 4 3 5 4
7 7 8 7 6 6 6 6 5 4 4 3 1 2 2 1 2 3 4 4 4 3
9 9 8 7 7 7 6 6 6 6 5 5 4 4 2 3 3 1 2 3 5 3
10 8 7 8 8 7 7 6 5 5 5 4 4 3 4 2 2 2 2 2 3 2
8 8 9 9 8 7 7 6 6 6 6 6 3 8 6 4 2 3 2 2 3 3
7 9 10 9 9 10 9 6 7 6 6 6 5 11 7 5 2 2 3 2 3 3
7 9 7 8 11 8 7 9 7 6 6 5 5 12 10 7 4 3 5 4 4 3
6 7 7 9 10 8 7 7 8 6 8 7 5 14 13 8 4 3 4 4 4 5
6 7 8 10 9 8 7 8 7 8 8 12 8 13 15 10 3 3 2 4 2 3
6 7 7 7 6 6 6 5 5 5 5 6 8 7 16 14 4 3 3 3 2 1
Wind_Direction
213 202 201 198 197 201 176 212 32 13 3 349 354 1 359 355 360 360 9 19 22 30
217 209 215 218 205 206 204 191 64 11 355 348 4 6 360 4 6 9 50 19 39 65
217 220 219 211 225 218 227 222 179 36 341 345 21 38 23 1 356 39 11 43 52 31
213 212 209 211 222 215 210 212 223 252 281 285 293 77 72 22 52 67 62 45 64 50
206 205 207 210 216 208 210 211 208 214 229 258 275 165 111 82 82 124 111 92 85 60
216 208 210 209 211 204 203 211 219 207 218 227 256 134 47 72 99 115 141 131 126 110
218 211 205 207 208 205 201 202 209 211 211 213 169 147 86 17 350 73 91 107 147 146
218 205 201 203 200 198 200 213 218 210 221 220 169 161 136 119 14 345 56 56 73 164
211 204 206 206 196 194 202 202 200 210 208 211 199 180 160 152 158 138 110 343 342 352
216 217 213 203 194 199 196 186 203 215 216 211 209 191 175 180 179 208 192 194 281 314
229 229 217 197 205 197 182 193 195 197 209 222 208 204 193 188 188 214 234 214 216 212
236 235 217 215 211 198 184 185 193 185 197 192 220 211 209 202 206 234 255 229 203 202
248 235 227 226 210 197 197 200 190 196 189 193 202 215 214 203 190 205 237 248 215 251
267 249 233 219 194 184 178 170 180 197 208 212 199 207 208 215 194 200 211 194 239 252